Time,TemperatureF,DewpointF,PressureIn,WindDirection,WindDirectionDegrees,WindSpeedMPH,WindSpeedGustMPH,Humidity,HourlyPrecipIn,Conditions,Clouds,dailyrainin,SolarRadiationWatts/m^2,SoftwareType,DateUTC
2013-07-19 00:01:00,85.1,77.8,29.90,WNW,296,1.0,3.0,79,0.00,,,0.00,0,WeatherCatV1.13B119,2013-07-19 04:01:00,
2013-07-19 00:06:00,85.0,77.7,29.90,WNW,297,0.0,1.0,79,0.00,,,0.00,0,WeatherCatV1.13B119,2013-07-19 04:06:00,
2013-07-19 00:11:00,85.0,77.7,29.90,WNW,297,0.0,1.0,79,0.00,,,0.00,0,WeatherCatV1.13B119,2013-07-19 04:11:00,
2013-07-19 00:16:00,85.1,78.2,29.90,WNW,297,0.0,0.0,80,0.00,,,0.00,0,WeatherCatV1.13B119,2013-07-19 04:16:00,
2013-07-19 00:21:00,85.1,78.2,29.90,WNW,297,0.0,2.0,80,0.00,,,0.00,0,WeatherCatV1.13B119,2013-07-19 04:21:00,
2013-07-19 00:26:00,85.2,78.3,29.90,WNW,297,0.0,3.0,80,0.00,,,0.00,0,WeatherCatV1.13B119,2013-07-19 04:26:00,
2013-07-19 00:31:00,85.2,78.3,29.90,WNW,297,0.0,2.0,80,0.00,,,0.00,0,WeatherCatV1.13B119,2013-07-19 04:31:00,
2013-07-19 00:36:00,85.3,78.4,29.91,WNW,296,2.0,4.0,80,0.00,,,0.00,0,WeatherCatV1.13B119,2013-07-19 04:36:00,
2013-07-19 00:41:00,85.3,78.4,29.90,WNW,297,1.0,2.0,80,0.00,,,0.00,0,WeatherCatV1.13B119,2013-07-19 04:41:00,
2013-07-19 00:45:00,85.3,78.4,29.91,WNW,297,0.0,3.0,80,0.00,,,0.00,0,WeatherCatV1.13B119,2013-07-19 04:45:00,
2013-07-19 00:50:00,85.3,78.4,29.91,WNW,297,1.0,5.0,80,0.00,,,0.00,0,WeatherCatV1.13B119,2013-07-19 04:50:00,
2013-07-19 00:55:00,85.3,78.4,29.91,WNW,297,1.0,7.0,80,0.00,,,0.00,0,WeatherCatV1.13B119,2013-07-19 04:55:00,
2013-07-19 01:00:00,85.2,78.3,29.91,WNW,297,0.0,3.0,80,0.00,,,0.00,0,WeatherCatV1.13B119,2013-07-19 05:00:00,
2013-07-19 01:05:00,85.2,78.3,29.91,WNW,296,0.0,2.0,80,0.00,,,0.00,0,WeatherCatV1.13B119,2013-07-19 05:05:00,
2013-07-19 01:10:00,85.2,78.3,29.91,WNW,297,2.0,2.0,80,0.00,,,0.00,0,WeatherCatV1.13B119,2013-07-19 05:10:00,
2013-07-19 01:15:00,85.2,78.3,29.91,WNW,297,0.0,2.0,80,0.00,,,0.00,0,WeatherCatV1.13B119,2013-07-19 05:15:00,
2013-07-19 01:20:00,85.1,78.2,29.91,WNW,297,0.0,1.0,80,0.00,,,0.00,0,WeatherCatV1.13B119,2013-07-19 05:20:00,
2013-07-19 01:25:00,85.0,78.1,29.90,WNW,297,0.0,2.0,80,0.00,,,0.00,0,WeatherCatV1.13B119,2013-07-19 05:25:00,
2013-07-19 01:30:00,84.9,78.0,29.90,WNW,296,0.0,3.0,80,0.00,,,0.00,0,WeatherCatV1.13B119,2013-07-19 05:30:00,
2013-07-19 01:35:00,84.8,77.9,29.90,WNW,296,1.0,5.0,80,0.00,,,0.00,0,WeatherCatV1.13B119,2013-07-19 05:35:00,
2013-07-19 01:40:00,84.7,77.8,29.90,WNW,296,1.0,2.0,80,0.00,,,0.00,0,WeatherCatV1.13B119,2013-07-19 05:40:00,
2013-07-19 01:45:00,84.6,77.7,29.90,WNW,296,0.0,2.0,80,0.00,,,0.00,0,WeatherCatV1.13B119,2013-07-19 05:45:00,
2013-07-19 01:50:00,84.6,77.7,29.90,WNW,296,0.0,2.0,80,0.00,,,0.00,0,WeatherCatV1.13B119,2013-07-19 05:50:00,
2013-07-19 01:55:00,84.5,77.6,29.90,WNW,296,0.0,1.0,80,0.00,,,0.00,0,WeatherCatV1.13B119,2013-07-19 05:55:00,
2013-07-19 02:00:00,84.4,77.5,29.90,WNW,296,0.0,1.0,80,0.00,,,0.00,0,WeatherCatV1.13B119,2013-07-19 06:00:00,
2013-07-19 02:05:00,84.4,77.5,29.90,WNW,296,0.0,0.0,80,0.00,,,0.00,0,WeatherCatV1.13B119,2013-07-19 06:05:00,
2013-07-19 02:10:00,84.3,77.8,29.90,WNW,296,2.0,2.0,81,0.00,,,0.00,0,WeatherCatV1.13B119,2013-07-19 06:10:00,
2013-07-19 02:15:00,84.3,77.8,29.90,WNW,295,0.0,2.0,81,0.00,,,0.00,0,WeatherCatV1.13B119,2013-07-19 06:15:00,
2013-07-19 02:20:00,84.2,77.7,29.90,WNW,292,0.0,1.0,81,0.00,,,0.00,0,WeatherCatV1.13B119,2013-07-19 06:20:00,
2013-07-19 02:25:00,84.1,77.6,29.90,West,279,0.0,0.0,81,0.00,,,0.00,0,WeatherCatV1.13B119,2013-07-19 06:25:00,
2013-07-19 02:30:00,84.0,77.9,29.90,WNW,286,0.0,5.0,82,0.00,,,0.00,0,WeatherCatV1.13B119,2013-07-19 06:30:00,
2013-07-19 02:35:00,83.9,77.8,29.90,WNW,292,0.0,4.0,82,0.00,,,0.00,0,WeatherCatV1.13B119,2013-07-19 06:35:00,
2013-07-19 02:40:00,83.9,77.8,29.90,WNW,294,1.0,2.0,82,0.00,,,0.00,0,WeatherCatV1.13B119,2013-07-19 06:40:00,
2013-07-19 02:45:00,83.7,77.6,29.90,WNW,295,0.0,1.0,82,0.00,,,0.00,0,WeatherCatV1.13B119,2013-07-19 06:45:00,
2013-07-19 02:50:00,83.6,77.9,29.90,WNW,295,0.0,5.0,83,0.00,,,0.00,0,WeatherCatV1.13B119,2013-07-19 06:50:00,
2013-07-19 02:55:00,83.5,77.8,29.90,WNW,295,1.0,1.0,83,0.00,,,0.00,0,WeatherCatV1.13B119,2013-07-19 06:55:00,
2013-07-19 03:00:00,83.4,77.7,29.90,WNW,295,1.0,3.0,83,0.00,,,0.00,0,WeatherCatV1.13B119,2013-07-19 07:00:00,
2013-07-19 03:05:00,83.3,77.6,29.90,WNW,295,0.0,6.0,83,0.00,,,0.00,0,WeatherCatV1.13B119,2013-07-19 07:05:00,
2013-07-19 03:10:00,83.2,77.5,29.90,WNW,294,0.0,1.0,83,0.00,,,0.00,0,WeatherCatV1.13B119,2013-07-19 07:10:00,
2013-07-19 03:15:00,83.1,77.4,29.90,WNW,294,0.0,0.0,83,0.00,,,0.00,0,WeatherCatV1.13B119,2013-07-19 07:15:00,
2013-07-19 03:20:00,83.0,77.3,29.90,WNW,294,0.0,3.0,83,0.00,,,0.00,0,WeatherCatV1.13B119,2013-07-19 07:20:00,
2013-07-19 03:25:00,83.0,77.3,29.90,WNW,294,0.0,4.0,83,0.00,,,0.00,0,WeatherCatV1.13B119,2013-07-19 07:25:00,
2013-07-19 03:30:00,82.9,77.6,29.90,WNW,292,4.0,4.0,84,0.00,,,0.00,0,WeatherCatV1.13B119,2013-07-19 07:30:00,
2013-07-19 03:35:00,82.8,77.5,29.90,WNW,291,0.0,3.0,84,0.00,,,0.00,0,WeatherCatV1.13B119,2013-07-19 07:35:00,
2013-07-19 03:40:00,82.8,77.5,29.90,WNW,290,0.0,0.0,84,0.00,,,0.00,0,WeatherCatV1.13B119,2013-07-19 07:40:00,
2013-07-19 03:45:00,82.7,77.4,29.89,WNW,290,0.0,0.0,84,0.00,,,0.00,0,WeatherCatV1.13B119,2013-07-19 07:45:00,
2013-07-19 03:50:00,82.6,77.3,29.89,WNW,288,0.0,0.0,84,0.00,,,0.00,0,WeatherCatV1.13B119,2013-07-19 07:50:00,
2013-07-19 03:55:00,82.5,77.2,29.89,WNW,287,0.0,0.0,84,0.00,,,0.00,0,WeatherCatV1.13B119,2013-07-19 07:55:00,
2013-07-19 04:00:00,82.5,77.2,29.89,West,281,2.0,2.0,84,0.00,,,0.00,0,WeatherCatV1.13B119,2013-07-19 08:00:00,
2013-07-19 04:05:00,82.3,77.3,29.89,WNW,284,0.0,1.0,85,0.00,,,0.00,0,WeatherCatV1.13B119,2013-07-19 08:05:00,
2013-07-19 04:10:00,82.2,77.2,29.90,WNW,283,1.0,2.0,85,0.00,,,0.00,0,WeatherCatV1.13B119,2013-07-19 08:10:00,
2013-07-19 04:15:00,82.1,77.1,29.89,WNW,286,0.0,3.0,85,0.00,,,0.00,0,WeatherCatV1.13B119,2013-07-19 08:15:00,
2013-07-19 04:20:00,82.0,77.0,29.89,WNW,283,0.0,0.0,85,0.00,,,0.00,0,WeatherCatV1.13B119,2013-07-19 08:20:00,
2013-07-19 04:25:00,81.9,76.9,29.89,WNW,282,0.0,1.0,85,0.00,,,0.00,0,WeatherCatV1.13B119,2013-07-19 08:25:00,
2013-07-19 04:30:00,81.8,76.8,29.89,West,273,2.0,2.0,85,0.00,,,0.00,0,WeatherCatV1.13B119,2013-07-19 08:30:00,
2013-07-19 04:35:00,81.7,77.1,29.89,West,273,0.0,4.0,86,0.00,,,0.00,0,WeatherCatV1.13B119,2013-07-19 08:35:00,
2013-07-19 04:40:00,81.6,76.6,29.89,West,265,1.0,2.0,85,0.00,,,0.00,0,WeatherCatV1.13B119,2013-07-19 08:40:00,
2013-07-19 04:45:00,81.5,76.9,29.89,West,262,0.0,2.0,86,0.00,,,0.00,0,WeatherCatV1.13B119,2013-07-19 08:45:00,
2013-07-19 04:50:00,81.4,76.8,29.89,West,259,1.0,1.0,86,0.00,,,0.00,0,WeatherCatV1.13B119,2013-07-19 08:50:00,
2013-07-19 04:55:00,81.3,76.7,29.89,West,259,0.0,2.0,86,0.00,,,0.00,0,WeatherCatV1.13B119,2013-07-19 08:55:00,
2013-07-19 05:00:00,81.2,76.6,29.89,West,263,0.0,1.0,86,0.00,,,0.00,0,WeatherCatV1.13B119,2013-07-19 09:00:00,
2013-07-19 05:05:00,81.2,76.6,29.89,West,265,0.0,3.0,86,0.00,,,0.00,0,WeatherCatV1.13B119,2013-07-19 09:05:00,
2013-07-19 05:10:00,81.1,76.5,29.89,West,265,1.0,3.0,86,0.00,,,0.00,0,WeatherCatV1.13B119,2013-07-19 09:10:00,
2013-07-19 05:15:00,81.1,76.5,29.88,West,264,0.0,0.0,86,0.00,,,0.00,0,WeatherCatV1.13B119,2013-07-19 09:15:00,
2013-07-19 05:20:00,81.0,76.4,29.89,West,267,0.0,0.0,86,0.00,,,0.00,0,WeatherCatV1.13B119,2013-07-19 09:20:00,
2013-07-19 05:25:00,80.9,76.3,29.89,West,273,2.0,2.0,86,0.00,,,0.00,0,WeatherCatV1.13B119,2013-07-19 09:25:00,
2013-07-19 05:30:00,80.8,76.2,29.88,West,277,0.0,2.0,86,0.00,,,0.00,0,WeatherCatV1.13B119,2013-07-19 09:30:00,
2013-07-19 05:35:00,80.7,76.1,29.88,West,276,0.0,1.0,86,0.00,,,0.00,0,WeatherCatV1.13B119,2013-07-19 09:35:00,
2013-07-19 05:40:00,80.6,76.0,29.89,West,272,0.0,0.0,86,0.00,,,0.00,0,WeatherCatV1.13B119,2013-07-19 09:40:00,
2013-07-19 05:45:00,80.6,76.0,29.89,West,271,1.0,1.0,86,0.00,,,0.00,0,WeatherCatV1.13B119,2013-07-19 09:45:00,
2013-07-19 05:50:00,80.6,76.0,29.89,West,271,0.0,3.0,86,0.00,,,0.00,0,WeatherCatV1.13B119,2013-07-19 09:50:00,
2013-07-19 05:55:00,80.6,76.0,29.89,West,273,0.0,2.0,86,0.00,,,0.00,5,WeatherCatV1.13B119,2013-07-19 09:55:00,
2013-07-19 06:00:00,80.6,76.4,29.89,West,275,2.0,3.0,87,0.00,,,0.00,9,WeatherCatV1.13B119,2013-07-19 10:00:00,
2013-07-19 06:05:00,80.5,76.3,29.89,West,274,2.0,3.0,87,0.00,,,0.00,12,WeatherCatV1.13B119,2013-07-19 10:05:00,
2013-07-19 06:10:00,80.6,76.4,29.88,West,273,0.0,2.0,87,0.00,,,0.00,12,WeatherCatV1.13B119,2013-07-19 10:10:00,
2013-07-19 06:15:00,80.5,76.6,29.88,West,275,3.0,3.0,88,0.00,,,0.00,14,WeatherCatV1.13B119,2013-07-19 10:15:00,
2013-07-19 06:20:00,80.5,76.6,29.88,West,277,0.0,4.0,88,0.00,,,0.00,18,WeatherCatV1.13B119,2013-07-19 10:20:00,
2013-07-19 06:25:00,80.5,76.6,29.88,West,274,3.0,3.0,88,0.00,,,0.00,21,WeatherCatV1.13B119,2013-07-19 10:25:00,
2013-07-19 06:30:00,80.5,76.6,29.88,West,274,0.0,4.0,88,0.00,,,0.00,26,WeatherCatV1.13B119,2013-07-19 10:30:00,
2013-07-19 06:35:00,80.4,76.5,29.88,West,271,0.0,3.0,88,0.00,,,0.00,28,WeatherCatV1.13B119,2013-07-19 10:35:00,
2013-07-19 06:40:00,80.4,76.5,29.88,WSW,248,0.0,3.0,88,0.00,,,0.00,32,WeatherCatV1.13B119,2013-07-19 10:40:00,
2013-07-19 06:45:00,80.4,76.5,29.88,WSW,239,0.0,5.0,88,0.00,,,0.00,35,WeatherCatV1.13B119,2013-07-19 10:45:00,
2013-07-19 06:50:00,80.4,76.2,29.88,WSW,245,2.0,2.0,87,0.00,,,0.00,39,WeatherCatV1.13B119,2013-07-19 10:50:00,
2013-07-19 06:55:00,80.4,76.2,29.88,WNW,291,1.0,3.0,87,0.00,,,0.00,40,WeatherCatV1.13B119,2013-07-19 10:55:00,
2013-07-19 07:00:00,80.5,76.3,29.88,WNW,295,2.0,4.0,87,0.00,,,0.00,42,WeatherCatV1.13B119,2013-07-19 11:00:00,
2013-07-19 07:05:00,80.6,76.4,29.88,WNW,295,0.0,3.0,87,0.00,,,0.00,46,WeatherCatV1.13B119,2013-07-19 11:05:00,
2013-07-19 07:10:00,80.7,76.5,29.89,WNW,292,2.0,3.0,87,0.00,,,0.00,49,WeatherCatV1.13B119,2013-07-19 11:10:00,
2013-07-19 07:15:00,80.8,76.6,29.89,WNW,292,0.0,1.0,87,0.00,,,0.00,63,WeatherCatV1.13B119,2013-07-19 11:15:00,
2013-07-19 07:20:00,81.0,76.8,29.89,WNW,291,2.0,5.0,87,0.00,,,0.00,65,WeatherCatV1.13B119,2013-07-19 11:20:00,
2013-07-19 07:25:00,81.1,76.5,29.89,WNW,291,0.0,1.0,86,0.00,,,0.00,58,WeatherCatV1.13B119,2013-07-19 11:25:00,
2013-07-19 07:30:00,81.2,76.6,29.89,WNW,292,1.0,6.0,86,0.00,,,0.00,63,WeatherCatV1.13B119,2013-07-19 11:30:00,
2013-07-19 07:35:00,81.4,76.4,29.89,WNW,292,4.0,4.0,85,0.00,,,0.00,74,WeatherCatV1.13B119,2013-07-19 11:35:00,
2013-07-19 07:40:00,81.6,76.6,29.89,WNW,295,0.0,5.0,85,0.00,,,0.00,74,WeatherCatV1.13B119,2013-07-19 11:40:00,
2013-07-19 07:45:00,81.9,76.6,29.89,WNW,292,0.0,1.0,84,0.00,,,0.00,155,WeatherCatV1.13B119,2013-07-19 11:45:00,
2013-07-19 07:50:00,82.1,76.4,29.89,WNW,298,0.0,5.0,83,0.00,,,0.00,81,WeatherCatV1.13B119,2013-07-19 11:50:00,
2013-07-19 07:55:00,82.5,76.8,29.90,WNW,298,1.0,2.0,83,0.00,,,0.00,227,WeatherCatV1.13B119,2013-07-19 11:55:00,
2013-07-19 08:00:00,82.8,76.7,29.90,WNW,298,0.0,3.0,82,0.00,,,0.00,239,WeatherCatV1.13B119,2013-07-19 12:00:00,
2013-07-19 08:05:00,83.2,77.1,29.89,WNW,298,0.0,6.0,82,0.00,,,0.00,246,WeatherCatV1.13B119,2013-07-19 12:05:00,
2013-07-19 08:10:00,83.6,77.1,29.89,WNW,298,4.0,7.0,81,0.00,,,0.00,255,WeatherCatV1.13B119,2013-07-19 12:10:00,
2013-07-19 08:15:00,83.9,77.0,29.89,WNW,298,2.0,5.0,80,0.00,,,0.00,272,WeatherCatV1.13B119,2013-07-19 12:15:00,
2013-07-19 08:20:00,84.4,77.2,29.89,WNW,298,3.0,4.0,79,0.00,,,0.00,281,WeatherCatV1.13B119,2013-07-19 12:20:00,
2013-07-19 08:25:00,84.9,77.2,29.89,WNW,298,1.0,1.0,78,0.00,,,0.00,297,WeatherCatV1.13B119,2013-07-19 12:25:00,
2013-07-19 08:30:00,85.3,77.6,29.89,WNW,298,0.0,4.0,78,0.00,,,0.00,315,WeatherCatV1.13B119,2013-07-19 12:30:00,
2013-07-19 08:35:00,85.8,77.7,29.89,WNW,299,0.0,5.0,77,0.00,,,0.00,327,WeatherCatV1.13B119,2013-07-19 12:35:00,
2013-07-19 08:40:00,86.3,77.4,29.89,WNW,298,5.0,6.0,75,0.00,,,0.00,336,WeatherCatV1.13B119,2013-07-19 12:40:00,
2013-07-19 08:45:00,86.8,77.5,29.89,WNW,298,0.0,4.0,74,0.00,,,0.00,348,WeatherCatV1.13B119,2013-07-19 12:45:00,
2013-07-19 08:50:00,87.1,77.4,29.89,WNW,298,1.0,5.0,73,0.00,,,0.00,364,WeatherCatV1.13B119,2013-07-19 12:50:00,
2013-07-19 08:55:00,87.5,77.7,29.89,WNW,298,0.0,5.0,73,0.00,,,0.00,369,WeatherCatV1.13B119,2013-07-19 12:55:00,
2013-07-19 09:00:00,87.8,77.6,29.89,WNW,298,1.0,7.0,72,0.00,,,0.00,387,WeatherCatV1.13B119,2013-07-19 13:00:00,
2013-07-19 09:05:00,88.1,77.9,29.89,WNW,298,1.0,4.0,72,0.00,,,0.00,399,WeatherCatV1.13B119,2013-07-19 13:05:00,
2013-07-19 09:10:00,88.4,77.8,29.89,WNW,298,3.0,3.0,71,0.00,,,0.00,413,WeatherCatV1.13B119,2013-07-19 13:10:00,
2013-07-19 09:15:00,88.8,77.7,29.89,WNW,298,0.0,3.0,70,0.00,,,0.00,429,WeatherCatV1.13B119,2013-07-19 13:15:00,
2013-07-19 09:20:00,89.2,78.1,29.89,WNW,298,2.0,5.0,70,0.00,,,0.00,450,WeatherCatV1.13B119,2013-07-19 13:20:00,
2013-07-19 09:25:00,89.5,77.9,29.89,WNW,298,4.0,9.0,69,0.00,,,0.00,469,WeatherCatV1.13B119,2013-07-19 13:25:00,
2013-07-19 09:30:00,89.7,78.1,29.89,WNW,298,1.0,5.0,69,0.00,,,0.00,468,WeatherCatV1.13B119,2013-07-19 13:30:00,
2013-07-19 09:35:00,89.9,78.8,29.89,WNW,298,2.0,6.0,70,0.00,,,0.00,482,WeatherCatV1.13B119,2013-07-19 13:35:00,
2013-07-19 09:40:00,90.1,79.0,29.89,WNW,298,1.0,12.0,70,0.00,,,0.00,492,WeatherCatV1.13B119,2013-07-19 13:40:00,
2013-07-19 09:45:00,90.3,79.2,29.89,WNW,298,2.0,4.0,70,0.00,,,0.00,513,WeatherCatV1.13B119,2013-07-19 13:45:00,
2013-07-19 09:50:00,90.7,79.5,29.88,WNW,298,0.0,1.0,70,0.00,,,0.00,526,WeatherCatV1.13B119,2013-07-19 13:50:00,
2013-07-19 09:55:00,91.1,79.9,29.88,WNW,298,3.0,7.0,70,0.00,,,0.00,541,WeatherCatV1.13B119,2013-07-19 13:55:00,
2013-07-19 10:00:00,91.3,79.7,29.88,WNW,298,3.0,5.0,69,0.00,,,0.00,552,WeatherCatV1.13B119,2013-07-19 14:00:00,
2013-07-19 10:05:00,91.5,79.9,29.88,WNW,298,2.0,5.0,69,0.00,,,0.00,564,WeatherCatV1.13B119,2013-07-19 14:05:00,
2013-07-19 10:10:00,91.8,80.1,29.88,WNW,298,1.0,10.0,69,0.00,,,0.00,578,WeatherCatV1.13B119,2013-07-19 14:10:00,
2013-07-19 10:15:00,92.0,80.3,29.88,WNW,298,7.0,7.0,69,0.00,,,0.00,591,WeatherCatV1.13B119,2013-07-19 14:15:00,
2013-07-19 10:20:00,92.3,80.6,29.88,WNW,298,2.0,6.0,69,0.00,,,0.00,599,WeatherCatV1.13B119,2013-07-19 14:20:00,
2013-07-19 10:25:00,92.5,80.4,29.88,WNW,298,2.0,8.0,68,0.00,,,0.00,605,WeatherCatV1.13B119,2013-07-19 14:25:00,
2013-07-19 10:30:00,92.6,80.9,29.88,WNW,297,2.0,3.0,69,0.00,,,0.00,624,WeatherCatV1.13B119,2013-07-19 14:30:00,
2013-07-19 10:35:00,92.9,80.7,29.88,WNW,297,6.0,6.0,68,0.00,,,0.00,631,WeatherCatV1.13B119,2013-07-19 14:35:00,
2013-07-19 10:40:00,93.2,81.5,29.88,WNW,298,0.0,3.0,69,0.00,,,0.00,636,WeatherCatV1.13B119,2013-07-19 14:40:00,
2013-07-19 10:45:00,93.9,81.7,29.88,WNW,298,1.0,6.0,68,0.00,,,0.00,650,WeatherCatV1.13B119,2013-07-19 14:45:00,
2013-07-19 10:50:00,94.2,81.1,29.87,WNW,286,0.0,2.0,66,0.00,,,0.00,666,WeatherCatV1.13B119,2013-07-19 14:50:00,
2013-07-19 10:55:00,94.4,81.7,29.87,WNW,287,1.0,5.0,67,0.00,,,0.00,677,WeatherCatV1.13B119,2013-07-19 14:55:00,
2013-07-19 11:00:00,94.7,81.5,29.87,WNW,287,2.0,8.0,66,0.00,,,0.00,680,WeatherCatV1.13B119,2013-07-19 15:00:00,
2013-07-19 11:05:00,94.8,81.6,29.87,WNW,286,2.0,11.0,66,0.00,,,0.00,693,WeatherCatV1.13B119,2013-07-19 15:05:00,
2013-07-19 11:10:00,95.1,81.9,29.87,WNW,286,2.0,4.0,66,0.00,,,0.00,691,WeatherCatV1.13B119,2013-07-19 15:10:00,
2013-07-19 11:15:00,95.2,81.5,29.87,WNW,286,9.0,9.0,65,0.00,,,0.00,710,WeatherCatV1.13B119,2013-07-19 15:15:00,
2013-07-19 11:19:00,95.2,81.5,29.87,WNW,282,2.0,7.0,65,0.00,,,0.00,707,WeatherCatV1.13B119,2013-07-19 15:19:00,
2013-07-19 11:24:00,95.4,81.7,29.86,WNW,282,0.0,10.0,65,0.00,,,0.00,740,WeatherCatV1.13B119,2013-07-19 15:24:00,
2013-07-19 11:29:00,95.6,81.9,29.87,WNW,282,3.0,6.0,65,0.00,,,0.00,742,WeatherCatV1.13B119,2013-07-19 15:29:00,
2013-07-19 11:34:00,95.9,81.7,29.86,WNW,282,5.0,8.0,64,0.00,,,0.00,758,WeatherCatV1.13B119,2013-07-19 15:34:00,
2013-07-19 11:39:00,96.0,81.3,29.86,WSW,258,5.0,12.0,63,0.00,,,0.00,770,WeatherCatV1.13B119,2013-07-19 15:39:00,
2013-07-19 11:44:00,96.0,80.8,29.86,WSW,248,2.0,6.0,62,0.00,,,0.00,777,WeatherCatV1.13B119,2013-07-19 15:44:00,
2013-07-19 11:49:00,96.0,80.8,29.85,WSW,238,6.0,14.0,62,0.00,,,0.00,777,WeatherCatV1.13B119,2013-07-19 15:49:00,
2013-07-19 11:53:00,96.1,80.9,29.85,SW,234,5.0,10.0,62,0.00,,,0.00,784,WeatherCatV1.13B119,2013-07-19 15:53:00,
2013-07-19 11:57:00,96.3,81.6,29.85,SW,234,4.0,5.0,63,0.00,,,0.00,809,WeatherCatV1.13B119,2013-07-19 15:57:00,
2013-07-19 12:02:00,96.5,81.3,29.85,WSW,253,12.0,12.0,62,0.00,,,0.00,809,WeatherCatV1.13B119,2013-07-19 16:02:00,
2013-07-19 12:07:00,96.6,81.4,29.85,WNW,288,7.0,9.0,62,0.00,,,0.00,817,WeatherCatV1.13B119,2013-07-19 16:07:00,
2013-07-19 12:12:00,96.8,81.6,29.85,West,271,4.0,12.0,62,0.00,,,0.00,807,WeatherCatV1.13B119,2013-07-19 16:12:00,
2013-07-19 12:17:00,96.8,81.6,29.84,West,263,0.0,6.0,62,0.00,,,0.00,858,WeatherCatV1.13B119,2013-07-19 16:17:00,
2013-07-19 12:22:00,97.1,81.9,29.84,WSW,250,3.0,10.0,62,0.00,,,0.00,831,WeatherCatV1.13B119,2013-07-19 16:22:00,
2013-07-19 12:27:00,97.4,81.6,29.84,SW,236,11.0,11.0,61,0.00,,,0.00,886,WeatherCatV1.13B119,2013-07-19 16:27:00,
2013-07-19 12:32:00,97.4,81.6,29.84,SW,233,11.0,12.0,61,0.00,,,0.00,171,WeatherCatV1.13B119,2013-07-19 16:32:00,
2013-07-19 12:37:00,97.1,81.9,29.84,SW,233,6.0,7.0,62,0.00,,,0.00,837,WeatherCatV1.13B119,2013-07-19 16:37:00,
2013-07-19 12:42:00,97.1,81.9,29.84,WSW,255,5.0,14.0,62,0.00,,,0.00,842,WeatherCatV1.13B119,2013-07-19 16:42:00,
2013-07-19 12:47:00,97.0,81.8,29.83,WSW,246,1.0,9.0,62,0.00,,,0.00,165,WeatherCatV1.13B119,2013-07-19 16:47:00,
2013-07-19 12:52:00,96.5,81.3,29.83,SW,226,5.0,14.0,62,0.00,,,0.00,868,WeatherCatV1.13B119,2013-07-19 16:52:00,
2013-07-19 12:57:00,96.3,81.6,29.83,SW,232,14.0,14.0,63,0.00,,,0.00,860,WeatherCatV1.13B119,2013-07-19 16:57:00,
2013-07-19 13:02:00,96.5,81.8,29.83,SW,235,4.0,9.0,63,0.00,,,0.00,886,WeatherCatV1.13B119,2013-07-19 17:02:00,
2013-07-19 13:07:00,96.7,81.5,29.83,SSW,213,2.0,14.0,62,0.00,,,0.00,868,WeatherCatV1.13B119,2013-07-19 17:07:00,
2013-07-19 13:12:00,96.9,82.2,29.82,SW,220,1.0,11.0,63,0.00,,,0.00,858,WeatherCatV1.13B119,2013-07-19 17:12:00,
2013-07-19 13:17:00,97.1,81.4,29.82,SW,232,3.0,11.0,61,0.00,,,0.00,895,WeatherCatV1.13B119,2013-07-19 17:17:00,
2013-07-19 13:22:00,97.3,81.0,29.82,SSW,202,2.0,15.0,60,0.00,,,0.00,881,WeatherCatV1.13B119,2013-07-19 17:22:00,
2013-07-19 13:27:00,97.2,80.9,29.82,SW,221,3.0,13.0,60,0.00,,,0.00,842,WeatherCatV1.13B119,2013-07-19 17:27:00,
2013-07-19 13:32:00,97.3,80.5,29.82,SSW,203,15.0,18.0,59,0.00,,,0.00,860,WeatherCatV1.13B119,2013-07-19 17:32:00,
2013-07-19 13:37:00,97.4,81.1,29.82,SSW,202,6.0,17.0,60,0.00,,,0.00,872,WeatherCatV1.13B119,2013-07-19 17:37:00,
2013-07-19 13:42:00,97.5,80.7,29.82,SSW,196,3.0,11.0,59,0.00,,,0.00,842,WeatherCatV1.13B119,2013-07-19 17:42:00,
2013-07-19 13:47:00,97.5,80.7,29.82,SW,236,4.0,12.0,59,0.00,,,0.00,853,WeatherCatV1.13B119,2013-07-19 17:47:00,
2013-07-19 13:52:00,97.4,81.1,29.82,West,263,6.0,16.0,60,0.00,,,0.00,239,WeatherCatV1.13B119,2013-07-19 17:52:00,
2013-07-19 13:57:00,97.2,80.9,29.81,WSW,238,6.0,11.0,60,0.00,,,0.00,810,WeatherCatV1.13B119,2013-07-19 17:57:00,
2013-07-19 14:02:00,97.3,81.0,29.81,WSW,238,11.0,11.0,60,0.00,,,0.00,872,WeatherCatV1.13B119,2013-07-19 18:02:00,
2013-07-19 14:07:00,97.6,80.8,29.81,SSW,196,15.0,18.0,59,0.00,,,0.00,868,WeatherCatV1.13B119,2013-07-19 18:07:00,
2013-07-19 14:12:00,97.5,80.7,29.81,SW,223,9.0,14.0,59,0.00,,,0.00,863,WeatherCatV1.13B119,2013-07-19 18:12:00,
2013-07-19 14:17:00,97.5,81.2,29.80,SSW,199,2.0,16.0,60,0.00,,,0.00,846,WeatherCatV1.13B119,2013-07-19 18:17:00,
2013-07-19 14:22:00,97.7,81.4,29.80,SSW,200,12.0,12.0,60,0.00,,,0.00,838,WeatherCatV1.13B119,2013-07-19 18:22:00,
2013-07-19 14:27:00,97.7,80.4,29.80,SSW,196,6.0,16.0,58,0.00,,,0.00,833,WeatherCatV1.13B119,2013-07-19 18:27:00,
2013-07-19 14:32:00,97.8,81.0,29.80,South,190,3.0,4.0,59,0.00,,,0.00,812,WeatherCatV1.13B119,2013-07-19 18:32:00,
2013-07-19 14:37:00,98.0,81.2,29.80,SW,219,2.0,6.0,59,0.00,,,0.00,770,WeatherCatV1.13B119,2013-07-19 18:37:00,
2013-07-19 14:42:00,98.3,80.9,29.80,West,279,1.0,7.0,58,0.00,,,0.00,726,WeatherCatV1.13B119,2013-07-19 18:42:00,
2013-07-19 14:47:00,98.4,81.0,29.79,SW,214,3.0,9.0,58,0.00,,,0.00,786,WeatherCatV1.13B119,2013-07-19 18:47:00,
2013-07-19 14:52:00,98.4,81.5,29.79,WSW,252,7.0,7.0,59,0.00,,,0.00,223,WeatherCatV1.13B119,2013-07-19 18:52:00,
2013-07-19 14:57:00,98.3,81.5,29.79,West,277,5.0,8.0,59,0.00,,,0.00,715,WeatherCatV1.13B119,2013-07-19 18:57:00,
2013-07-19 15:02:00,98.3,80.4,29.79,West,260,6.0,10.0,57,0.00,,,0.00,793,WeatherCatV1.13B119,2013-07-19 19:02:00,
2013-07-19 15:07:00,98.3,80.4,29.79,WSW,245,2.0,11.0,57,0.00,,,0.00,758,WeatherCatV1.13B119,2013-07-19 19:07:00,
2013-07-19 15:12:00,98.5,80.0,29.78,SW,217,5.0,13.0,56,0.00,,,0.00,772,WeatherCatV1.13B119,2013-07-19 19:12:00,
2013-07-19 15:17:00,98.6,80.7,29.78,WSW,242,1.0,15.0,57,0.00,,,0.00,765,WeatherCatV1.13B119,2013-07-19 19:17:00,
2013-07-19 15:22:00,98.5,80.0,29.78,SW,236,11.0,14.0,56,0.00,,,0.00,759,WeatherCatV1.13B119,2013-07-19 19:22:00,
2013-07-19 15:27:00,98.4,79.9,29.77,SSW,193,6.0,11.0,56,0.00,,,0.00,682,WeatherCatV1.13B119,2013-07-19 19:27:00,
2013-07-19 15:32:00,98.2,79.8,29.77,SSW,202,2.0,14.0,56,0.00,,,0.00,728,WeatherCatV1.13B119,2013-07-19 19:32:00,
2013-07-19 15:37:00,98.1,80.7,29.77,South,190,3.0,11.0,58,0.00,,,0.00,671,WeatherCatV1.13B119,2013-07-19 19:37:00,
2013-07-19 15:42:00,97.8,81.0,29.77,SSW,207,8.0,13.0,59,0.00,,,0.00,162,WeatherCatV1.13B119,2013-07-19 19:42:00,
2013-07-19 15:47:00,97.6,80.3,29.77,SSW,194,9.0,14.0,58,0.00,,,0.00,677,WeatherCatV1.13B119,2013-07-19 19:47:00,
2013-07-19 15:52:00,97.6,80.3,29.77,SW,216,5.0,11.0,58,0.00,,,0.00,664,WeatherCatV1.13B119,2013-07-19 19:52:00,
2013-07-19 15:57:00,97.7,79.8,29.76,South,183,3.0,17.0,57,0.00,,,0.00,664,WeatherCatV1.13B119,2013-07-19 19:57:00,
2013-07-19 16:02:00,97.7,79.8,29.76,SW,225,4.0,10.0,57,0.00,,,0.00,610,WeatherCatV1.13B119,2013-07-19 20:02:00,
2013-07-19 16:07:00,97.9,79.5,29.76,South,181,0.0,15.0,56,0.00,,,0.00,621,WeatherCatV1.13B119,2013-07-19 20:07:00,
2013-07-19 16:12:00,97.8,79.9,29.75,South,190,2.0,14.0,57,0.00,,,0.00,605,WeatherCatV1.13B119,2013-07-19 20:12:00,
2013-07-19 16:17:00,97.8,79.9,29.75,South,191,13.0,13.0,57,0.00,,,0.00,585,WeatherCatV1.13B119,2013-07-19 20:17:00,
2013-07-19 16:22:00,97.7,79.8,29.75,SW,230,5.0,14.0,57,0.00,,,0.00,592,WeatherCatV1.13B119,2013-07-19 20:22:00,
2013-07-19 16:27:00,97.4,79.6,29.75,SSW,196,7.0,12.0,57,0.00,,,0.00,601,WeatherCatV1.13B119,2013-07-19 20:27:00,
2013-07-19 16:32:00,97.3,80.0,29.76,SW,223,4.0,12.0,58,0.00,,,0.00,580,WeatherCatV1.13B119,2013-07-19 20:32:00,
2013-07-19 16:37:00,97.3,80.0,29.75,NW,309,1.0,11.0,58,0.00,,,0.00,563,WeatherCatV1.13B119,2013-07-19 20:37:00,
2013-07-19 16:42:00,97.4,80.1,29.75,SSW,209,6.0,12.0,58,0.00,,,0.00,515,WeatherCatV1.13B119,2013-07-19 20:42:00,
2013-07-19 16:47:00,97.6,79.7,29.75,SSW,194,6.0,10.0,57,0.00,,,0.00,515,WeatherCatV1.13B119,2013-07-19 20:47:00,
2013-07-19 16:52:00,97.5,79.7,29.75,SSE,166,9.0,14.0,57,0.00,,,0.00,483,WeatherCatV1.13B119,2013-07-19 20:52:00,
2013-07-19 16:57:00,97.3,79.5,29.75,South,184,3.0,14.0,57,0.00,,,0.00,464,WeatherCatV1.13B119,2013-07-19 20:57:00,
2013-07-19 17:02:00,97.3,79.5,29.74,SSW,196,4.0,10.0,57,0.00,,,0.00,461,WeatherCatV1.13B119,2013-07-19 21:02:00,
2013-07-19 17:07:00,97.3,80.0,29.74,SW,217,2.0,13.0,58,0.00,,,0.00,446,WeatherCatV1.13B119,2013-07-19 21:07:00,
2013-07-19 17:12:00,97.4,79.0,29.74,SSW,208,5.0,14.0,56,0.00,,,0.00,420,WeatherCatV1.13B119,2013-07-19 21:12:00,
2013-07-19 17:17:00,97.4,79.0,29.74,SW,217,7.0,9.0,56,0.00,,,0.00,427,WeatherCatV1.13B119,2013-07-19 21:17:00,
2013-07-19 17:22:00,97.5,79.7,29.74,South,190,4.0,13.0,57,0.00,,,0.00,410,WeatherCatV1.13B119,2013-07-19 21:22:00,
2013-07-19 17:27:00,97.4,79.6,29.74,SW,223,4.0,11.0,57,0.00,,,0.00,378,WeatherCatV1.13B119,2013-07-19 21:27:00,
2013-07-19 17:32:00,97.1,79.8,29.73,SSE,155,4.0,16.0,58,0.00,,,0.00,367,WeatherCatV1.13B119,2013-07-19 21:32:00,
2013-07-19 17:37:00,96.9,79.1,29.73,South,188,11.0,13.0,57,0.00,,,0.00,350,WeatherCatV1.13B119,2013-07-19 21:37:00,
2013-07-19 17:42:00,96.8,79.5,29.73,SW,227,6.0,19.0,58,0.00,,,0.00,332,WeatherCatV1.13B119,2013-07-19 21:42:00,
2013-07-19 17:47:00,96.5,79.8,29.73,West,261,0.0,3.0,59,0.00,,,0.00,323,WeatherCatV1.13B119,2013-07-19 21:47:00,
2013-07-19 17:52:00,96.5,79.3,29.73,SW,229,3.0,11.0,58,0.00,,,0.00,311,WeatherCatV1.13B119,2013-07-19 21:52:00,
2013-07-19 17:57:00,96.4,79.2,29.72,WNW,296,5.0,12.0,58,0.00,,,0.00,287,WeatherCatV1.13B119,2013-07-19 21:57:00,
2013-07-19 18:02:00,96.3,79.6,29.73,SSW,203,0.0,7.0,59,0.00,,,0.00,267,WeatherCatV1.13B119,2013-07-19 22:02:00,
2013-07-19 18:07:00,96.2,79.5,29.73,SW,214,5.0,17.0,59,0.00,,,0.00,265,WeatherCatV1.13B119,2013-07-19 22:07:00,
2013-07-19 18:12:00,96.0,79.3,29.73,SSW,203,13.0,16.0,59,0.00,,,0.00,248,WeatherCatV1.13B119,2013-07-19 22:12:00,
2013-07-19 18:17:00,95.9,78.7,29.73,SSE,166,6.0,17.0,58,0.00,,,0.00,218,WeatherCatV1.13B119,2013-07-19 22:17:00,
2013-07-19 18:22:00,95.7,79.0,29.73,WSW,248,4.0,14.0,59,0.00,,,0.00,218,WeatherCatV1.13B119,2013-07-19 22:22:00,
2013-07-19 18:27:00,95.6,78.9,29.74,West,279,1.0,13.0,59,0.00,,,0.00,206,WeatherCatV1.13B119,2013-07-19 22:27:00,
2013-07-19 18:32:00,95.5,79.4,29.74,SSW,209,10.0,10.0,60,0.00,,,0.00,186,WeatherCatV1.13B119,2013-07-19 22:32:00,
2013-07-19 18:37:00,95.6,78.9,29.74,WSW,245,0.0,9.0,59,0.00,,,0.00,169,WeatherCatV1.13B119,2013-07-19 22:37:00,
2013-07-19 18:42:00,95.5,78.8,29.73,South,186,12.0,17.0,59,0.00,,,0.00,163,WeatherCatV1.13B119,2013-07-19 22:42:00,
2013-07-19 18:47:00,95.3,78.7,29.74,West,280,2.0,14.0,59,0.00,,,0.00,137,WeatherCatV1.13B119,2013-07-19 22:47:00,
2013-07-19 18:52:00,95.3,79.2,29.74,SW,229,3.0,9.0,60,0.00,,,0.00,127,WeatherCatV1.13B119,2013-07-19 22:52:00,
2013-07-19 18:57:00,95.2,79.1,29.74,SSW,195,4.0,13.0,60,0.00,,,0.00,121,WeatherCatV1.13B119,2013-07-19 22:57:00,
2013-07-19 19:02:00,95.0,79.4,29.73,SSW,199,6.0,16.0,61,0.00,,,0.00,105,WeatherCatV1.13B119,2013-07-19 23:02:00,
2013-07-19 19:07:00,94.7,79.1,29.73,WSW,254,8.0,8.0,61,0.00,,,0.00,53,WeatherCatV1.13B119,2013-07-19 23:07:00,
2013-07-19 19:12:00,94.5,78.9,29.73,SSW,202,8.0,13.0,61,0.00,,,0.00,47,WeatherCatV1.13B119,2013-07-19 23:12:00,
2013-07-19 19:17:00,94.2,79.1,29.73,SSW,196,13.0,13.0,62,0.00,,,0.00,49,WeatherCatV1.13B119,2013-07-19 23:17:00,
2013-07-19 19:22:00,94.0,78.9,29.73,SW,223,1.0,13.0,62,0.00,,,0.00,69,WeatherCatV1.13B119,2013-07-19 23:22:00,
2013-07-19 19:27:00,93.9,78.9,29.74,SSW,198,2.0,5.0,62,0.00,,,0.00,63,WeatherCatV1.13B119,2013-07-19 23:27:00,
2013-07-19 19:32:00,93.7,79.2,29.74,West,263,1.0,9.0,63,0.00,,,0.00,56,WeatherCatV1.13B119,2013-07-19 23:32:00,
2013-07-19 19:37:00,93.5,79.0,29.74,SW,218,5.0,9.0,63,0.00,,,0.00,33,WeatherCatV1.13B119,2013-07-19 23:37:00,
2013-07-19 19:42:00,93.3,78.8,29.74,West,281,1.0,12.0,63,0.00,,,0.00,18,WeatherCatV1.13B119,2013-07-19 23:42:00,
2013-07-19 19:47:00,93.1,78.6,29.74,SSW,202,11.0,11.0,63,0.00,,,0.00,14,WeatherCatV1.13B119,2013-07-19 23:47:00,
2013-07-19 19:52:00,93.0,79.0,29.74,SSW,205,6.0,9.0,64,0.00,,,0.00,12,WeatherCatV1.13B119,2013-07-19 23:52:00,
2013-07-19 19:57:00,92.8,78.8,29.74,SW,224,0.0,6.0,64,0.00,,,0.00,14,WeatherCatV1.13B119,2013-07-19 23:57:00,
2013-07-19 20:02:00,92.7,78.7,29.74,SW,226,3.0,6.0,64,0.00,,,0.00,14,WeatherCatV1.13B119,2013-07-20 00:02:00,
2013-07-19 20:07:00,92.5,79.0,29.74,West,269,4.0,9.0,65,0.00,,,0.00,12,WeatherCatV1.13B119,2013-07-20 00:07:00,
2013-07-19 20:12:00,92.4,78.9,29.74,SW,223,2.0,5.0,65,0.00,,,0.00,9,WeatherCatV1.13B119,2013-07-20 00:12:00,
2013-07-19 20:17:00,92.2,78.7,29.75,SW,223,3.0,4.0,65,0.00,,,0.00,5,WeatherCatV1.13B119,2013-07-20 00:17:00,
2013-07-19 20:22:00,92.1,79.1,29.75,SSW,196,4.0,6.0,66,0.00,,,0.00,0,WeatherCatV1.13B119,2013-07-20 00:22:00,
2013-07-19 20:27:00,92.0,79.0,29.75,SSW,203,2.0,9.0,66,0.00,,,0.00,0,WeatherCatV1.13B119,2013-07-20 00:27:00,
2013-07-19 20:32:00,91.8,79.2,29.75,SSW,203,1.0,5.0,67,0.00,,,0.00,0,WeatherCatV1.13B119,2013-07-20 00:32:00,
2013-07-19 20:37:00,91.8,79.2,29.76,SSW,204,5.0,6.0,67,0.00,,,0.00,0,WeatherCatV1.13B119,2013-07-20 00:37:00,
2013-07-19 20:42:00,91.6,79.5,29.76,SSW,205,5.0,6.0,68,0.00,,,0.00,0,WeatherCatV1.13B119,2013-07-20 00:42:00,
2013-07-19 20:47:00,91.5,79.4,29.76,SW,223,1.0,10.0,68,0.00,,,0.00,0,WeatherCatV1.13B119,2013-07-20 00:47:00,
2013-07-19 20:52:00,91.4,79.8,29.77,SSW,199,2.0,7.0,69,0.00,,,0.00,0,WeatherCatV1.13B119,2013-07-20 00:52:00,
2013-07-19 20:57:00,91.4,79.8,29.76,South,190,3.0,11.0,69,0.00,,,0.00,0,WeatherCatV1.13B119,2013-07-20 00:57:00,
2013-07-19 21:02:00,91.2,79.6,29.76,WSW,252,0.0,6.0,69,0.00,,,0.00,0,WeatherCatV1.13B119,2013-07-20 01:02:00,
2013-07-19 21:07:00,91.1,79.9,29.76,SW,234,2.0,6.0,70,0.00,,,0.00,0,WeatherCatV1.13B119,2013-07-20 01:07:00,
2013-07-19 21:12:00,91.0,79.8,29.76,SW,234,0.0,4.0,70,0.00,,,0.00,0,WeatherCatV1.13B119,2013-07-20 01:12:00,
2013-07-19 21:17:00,90.9,80.2,29.77,SW,234,1.0,4.0,71,0.00,,,0.00,0,WeatherCatV1.13B119,2013-07-20 01:17:00,
2013-07-19 21:22:00,90.8,80.1,29.77,SW,234,0.0,3.0,71,0.00,,,0.00,0,WeatherCatV1.13B119,2013-07-20 01:22:00,
2013-07-19 21:27:00,90.8,80.1,29.77,SW,229,2.0,4.0,71,0.00,,,0.00,0,WeatherCatV1.13B119,2013-07-20 01:27:00,
2013-07-19 21:32:00,90.6,80.3,29.77,SW,218,2.0,3.0,72,0.00,,,0.00,0,WeatherCatV1.13B119,2013-07-20 01:32:00,
2013-07-19 21:37:00,90.5,80.2,29.77,SSW,207,0.0,6.0,72,0.00,,,0.00,0,WeatherCatV1.13B119,2013-07-20 01:37:00,
2013-07-19 21:41:00,90.4,80.5,29.77,SW,221,3.0,6.0,73,0.00,,,0.00,0,WeatherCatV1.13B119,2013-07-20 01:41:00,
2013-07-19 21:46:00,90.3,80.4,29.77,SSW,211,2.0,5.0,73,0.00,,,0.00,0,WeatherCatV1.13B119,2013-07-20 01:46:00,
2013-07-19 21:51:00,90.2,80.3,29.76,SSW,210,1.0,2.0,73,0.00,,,0.00,0,WeatherCatV1.13B119,2013-07-20 01:51:00,
2013-07-19 21:56:00,90.1,80.7,29.76,SSW,210,3.0,4.0,74,0.00,,,0.00,0,WeatherCatV1.13B119,2013-07-20 01:56:00,
2013-07-19 22:01:00,90.0,80.6,29.76,SSW,210,0.0,6.0,74,0.00,,,0.00,0,WeatherCatV1.13B119,2013-07-20 02:01:00,
2013-07-19 22:06:00,89.8,80.8,29.76,SSW,213,5.0,6.0,75,0.00,,,0.00,0,WeatherCatV1.13B119,2013-07-20 02:06:00,
2013-07-19 22:11:00,89.7,80.7,29.76,SSW,210,5.0,10.0,75,0.00,,,0.00,0,WeatherCatV1.13B119,2013-07-20 02:11:00,
2013-07-19 22:16:00,89.6,80.6,29.76,South,188,10.0,11.0,75,0.00,,,0.00,0,WeatherCatV1.13B119,2013-07-20 02:16:00,
2013-07-19 22:21:00,89.5,80.5,29.76,SSW,209,3.0,12.0,75,0.00,,,0.00,0,WeatherCatV1.13B119,2013-07-20 02:21:00,
2013-07-19 22:26:00,89.3,79.9,29.75,SW,236,3.0,12.0,74,0.00,,,0.00,0,WeatherCatV1.13B119,2013-07-20 02:26:00,
2013-07-19 22:31:00,89.2,79.8,29.75,SSW,194,3.0,5.0,74,0.00,,,0.00,0,WeatherCatV1.13B119,2013-07-20 02:31:00,
2013-07-19 22:36:00,89.1,79.7,29.75,SSW,196,3.0,12.0,74,0.00,,,0.00,0,WeatherCatV1.13B119,2013-07-20 02:36:00,
2013-07-19 22:41:00,88.9,79.1,29.75,SSW,202,7.0,7.0,73,0.00,,,0.00,0,WeatherCatV1.13B119,2013-07-20 02:41:00,
2013-07-19 22:46:00,88.8,78.6,29.75,SSW,211,6.0,10.0,72,0.00,,,0.00,0,WeatherCatV1.13B119,2013-07-20 02:46:00,
2013-07-19 22:51:00,88.7,78.9,29.74,SW,217,2.0,3.0,73,0.00,,,0.00,0,WeatherCatV1.13B119,2013-07-20 02:51:00,
2013-07-19 22:56:00,88.6,78.8,29.74,SW,229,2.0,10.0,73,0.00,,,0.00,0,WeatherCatV1.13B119,2013-07-20 02:56:00,
2013-07-19 23:01:00,88.5,79.1,29.74,SSW,195,5.0,5.0,74,0.00,,,0.00,0,WeatherCatV1.13B119,2013-07-20 03:01:00,
2013-07-19 23:06:00,88.4,79.4,29.73,SSW,203,4.0,7.0,75,0.00,,,0.00,0,WeatherCatV1.13B119,2013-07-20 03:06:00,
2013-07-19 23:11:00,88.3,79.3,29.73,WSW,252,3.0,6.0,75,0.00,,,0.00,0,WeatherCatV1.13B119,2013-07-20 03:11:00,
2013-07-19 23:16:00,88.2,79.2,29.74,SSW,198,4.0,10.0,75,0.00,,,0.00,0,WeatherCatV1.13B119,2013-07-20 03:16:00,
2013-07-19 23:21:00,88.1,79.6,29.74,SSW,202,0.0,3.0,76,0.00,,,0.00,0,WeatherCatV1.13B119,2013-07-20 03:21:00,
2013-07-19 23:26:00,88.0,79.5,29.74,SSW,202,6.0,9.0,76,0.00,,,0.00,0,WeatherCatV1.13B119,2013-07-20 03:26:00,
2013-07-19 23:31:00,87.9,79.4,29.74,SSW,195,3.0,12.0,76,0.00,,,0.00,0,WeatherCatV1.13B119,2013-07-20 03:31:00,
2013-07-19 23:36:00,87.8,79.3,29.74,SSW,200,4.0,10.0,76,0.00,,,0.00,0,WeatherCatV1.13B119,2013-07-20 03:36:00,
2013-07-19 23:41:00,87.6,79.1,29.74,SSW,213,4.0,9.0,76,0.00,,,0.00,0,WeatherCatV1.13B119,2013-07-20 03:41:00,
2013-07-19 23:46:00,87.5,79.4,29.74,SSW,194,0.0,7.0,77,0.00,,,0.00,0,WeatherCatV1.13B119,2013-07-20 03:46:00,
2013-07-19 23:51:00,87.4,79.3,29.74,South,187,2.0,10.0,77,0.00,,,0.00,0,WeatherCatV1.13B119,2013-07-20 03:51:00,
2013-07-19 23:56:00,87.3,79.2,29.74,SSW,209,7.0,10.0,77,0.00,,,0.00,0,WeatherCatV1.13B119,2013-07-20 03:56:00,